Home   Weather   Santiago de Cuba   Past weeks

Flag for Cuba Past Weather in Santiago de Cuba, Cuba — Yesterday and Last 2 Weeks

Now
82 °F

Scattered clouds.


Feels Like: 85 °F
Forecast: 68 / 88 °F
Wind: 10 mph from South

Location: Santiago De Cuba - Oriente

Current Time: Dec 10, 2016 at 1:33:47 pm

Latest Report: Dec 10, 2016 at 12:51 pm


Visibility: N/A

Pressure: 30.04 "Hg

Humidity: 58%

Dew Point: 66 °F

Location of Santiago de CubaLocation

Past Weather in Santiago de Cuba — Graph

°F

Santiago de Cuba Temperature Yesterday

Maximum temperature yesterday: 82 °F (at 11:50 am)
Minimum temperature yesterday: 70 °F (at 3:51 am)
Average temperature yesterday: 77 °F

High & Low Weather Summary for the Past Weeks

 TemperatureHumidityPressure
High91 °F (Nov 25, 1:51 pm)94% (Dec 2, 5:51 am)30.09 "Hg (Dec 2, 5:51 am)
Low68 °F (Nov 29, 12:51 am)36% (Nov 25, 1:51 pm)29.83 "Hg (Nov 27, 2:51 pm)
Average78 °F71%29.96 "Hg
* Reported Nov 25 11:51 am — Dec 10 11:50 am, Santiago de Cuba, Weather by CustomWeather, © 2016

Note: Actual official high and low records may vary slightly from our data, if they occured in-between our weather recording intervals... More about our weather records

Advertising

Santiago de Cuba Weather History for the Previous 24 Hours

Scroll right to see more
 ConditionsComfort  
Time TempWeatherWind HumidityBarometerVisibility
11:50 am
Sat, Dec 10
82 °FPassing clouds.7 mph51%30.07 "HgN/A
10:50 am82 °FPassing clouds.8 mph48%30.09 "HgN/A
9:51 am84 °FPassing clouds.5 mph43%30.09 "HgN/A
8:50 am81 °FPassing clouds.8 mph54%30.09 "HgN/A
7:50 am75 °FPassing clouds.8 mph65%30.09 "HgN/A
6:50 am70 °FPassing clouds.8 mph83%30.07 "HgN/A
5:51 am70 °FPassing clouds.8 mph83%30.07 "HgN/A
4:51 am70 °FPassing clouds.8 mph83%30.07 "Hg6 mi
3:51 am70 °FPassing clouds.6 mph83%30.04 "Hg6 mi
2:51 am70 °FPassing clouds.7 mph83%30.04 "Hg6 mi
1:50 am72 °FPassing clouds.7 mph78%30.07 "Hg6 mi
12:50 am72 °FPassing clouds.6 mph78%30.07 "Hg6 mi
11:50 pm
Fri, Dec 9
73 °FPassing clouds.6 mph74%30.07 "Hg6 mi
10:51 pm75 °FPassing clouds.8 mph69%30.07 "Hg6 mi
9:50 pm75 °FPassing clouds.10 mph69%30.07 "Hg6 mi
8:50 pm77 °FPassing clouds.8 mph65%30.07 "Hg6 mi
7:50 pm77 °FPassing clouds.9 mph69%30.04 "Hg6 mi
6:50 pm81 °FPassing clouds.8 mph66%30.04 "Hg6 mi
5:50 pm81 °FPassing clouds.9 mph62%30.01 "Hg6 mi
4:51 pm81 °FScattered clouds.10 mph62%30.01 "Hg6 mi
3:50 pm82 °FPassing clouds.9 mph62%30.01 "Hg6 mi
2:51 pm82 °FPassing clouds.10 mph58%30.01 "Hg6 mi
1:51 pm82 °FPassing clouds.9 mph55%30.01 "Hg6 mi
Weather by CustomWeather, © 2016

See weather overviewHow to use our weather pages